,,,PA_Meas_PMT16A,,PR_Meas_QMR101_102,,RH_Meas_QMH101,,SR_Meas_QMS101,,TA_Meas_QMH101,,GenWind,,GenWind,
date,time,status,PA,status,PR,status,RH,status,SR,status,TA,status,DirAvg,status,SpdAvg,
2008-07-17, 06:37:04,VALID,1002.83,VALID,0,VALID,96.0781,VALID,95.8365,VALID,24.4841,VALID,4,VALID,0.401563,
2008-07-17, 06:38:04,VALID,1002.83,VALID,0,VALID,96.0857,VALID,93.2218,VALID,24.5017,VALID,4,VALID,0.502344,
2008-07-17, 06:39:04,VALID,1002.83,VALID,0,VALID,96.04,VALID,93.423,VALID,24.5212,VALID,4,VALID,0.435937,
2008-07-17, 06:40:04,VALID,1002.89,VALID,0,VALID,95.9866,VALID,96.2387,VALID,24.5601,VALID,4,VALID,0.365625,
2008-07-17, 06:41:04,VALID,1002.89,VALID,0,VALID,95.9942,VALID,103.178,VALID,24.6788,VALID,4,VALID,0.203516,
2008-07-17, 06:42:04,VALID,1002.96,VALID,0,VALID,95.9713,VALID,114.24,VALID,24.7761,VALID,4,VALID,0.233203,
2008-07-17, 06:43:04,VALID,1002.97,VALID,0,VALID,95.9179,VALID,122.285,VALID,24.8346,VALID,4,VALID,0.160938,
2008-07-17, 06:44:04,VALID,1003.01,VALID,0,VALID,95.9179,VALID,122.888,VALID,24.93,VALID,4,VALID,0.116797,
2008-07-17, 06:45:04,VALID,1003.05,VALID,0,VALID,95.8798,VALID,120.575,VALID,25.0877,VALID,4,VALID,0.217969,
2008-07-17, 06:46:04,VALID,1003.07,VALID,0,VALID,95.8416,VALID,116.754,VALID,25.1851,VALID,4,VALID,0.0890625,
2008-07-17, 06:47:04,VALID,1003.08,VALID,0,VALID,95.7806,VALID,109.614,VALID,25.3039,VALID,4,VALID,0.266406,
2008-07-17, 06:48:04,VALID,1003.13,VALID,0,VALID,95.6967,VALID,102.474,VALID,25.4188,VALID,4,VALID,0.228125,
2008-07-17, 06:49:04,VALID,1003.15,VALID,0,VALID,95.6433,VALID,99.9596,VALID,25.5551,VALID,4,VALID,0.0941406,
2008-07-17, 06:50:04,VALID,1003.17,VALID,0,VALID,95.5365,VALID,99.0545,VALID,25.67,VALID,4,VALID,0.133203,
2008-07-17, 06:51:04,VALID,1003.16,VALID,0,VALID,95.3686,VALID,97.3449,VALID,25.7869,VALID,4,VALID,0.213281,
2008-07-17, 06:52:04,VALID,1003.17,VALID,0,VALID,95.1016,VALID,100.462,VALID,25.8668,VALID,4,VALID,0.215234,
2008-07-17, 06:53:04,VALID,1003.19,VALID,0,VALID,94.9643,VALID,103.882,VALID,25.9447,VALID,4,VALID,0.0351563,
2008-07-17, 06:54:04,VALID,1003.23,VALID,0,VALID,94.7431,VALID,112.832,VALID,25.9836,VALID,5,VALID,0.08125,
2008-07-17, 06:55:04,VALID,1003.24,VALID,0,VALID,94.6439,VALID,123.994,VALID,26.1025,VALID,5,VALID,0,
2008-07-17, 06:56:04,VALID,1003.26,VALID,0,VALID,94.5295,VALID,136.665,VALID,26.1979,VALID,5,VALID,0,
2008-07-17, 06:57:04,VALID,1003.25,VALID,0,VALID,94.3311,VALID,130.732,VALID,26.2933,VALID,5,VALID,0,
2008-07-17, 06:58:04,VALID,1003.29,VALID,0,VALID,93.8886,VALID,108.809,VALID,26.3713,VALID,9,VALID,0,
2008-07-17, 06:59:04,VALID,1003.31,VALID,0,VALID,92.8206,VALID,106.898,VALID,26.3303,VALID,66,VALID,0.541016,
2008-07-17, 07:00:04,VALID,1003.33,VALID,0,VALID,92.6222,VALID,105.39,VALID,26.3907,VALID,66,VALID,0.226953,
2008-07-17, 07:01:04,VALID,1003.33,VALID,0,VALID,92.6375,VALID,103.178,VALID,26.4492,VALID,66,VALID,0.0234375,
2008-07-17, 07:02:04,VALID,1003.34,VALID,0,VALID,92.2179,VALID,151.146,VALID,26.4707,VALID,66,VALID,0.196875,
2008-07-17, 07:03:04,VALID,1003.36,VALID,0,VALID,92.0653,VALID,197.003,VALID,26.4687,VALID,66,VALID,0,
2008-07-17, 07:04:04,VALID,1003.32,VALID,0,VALID,91.928,VALID,191.572,VALID,26.5466,VALID,66,VALID,0,
2008-07-17, 07:05:04,VALID,1003.32,VALID,0,VALID,91.5237,VALID,180.108,VALID,26.605,VALID,66,VALID,0.00429688,
2008-07-17, 07:06:04,VALID,1003.32,VALID,0,VALID,91.0965,VALID,100.06,VALID,26.683,VALID,66,VALID,0,
2008-07-17, 07:07:04,VALID,1003.33,VALID,0,VALID,90.2268,VALID,177.695,VALID,26.7219,VALID,66,VALID,0.101172,
2008-07-17, 07:08:04,VALID,1003.34,VALID,0,VALID,89.4181,VALID,138.978,VALID,26.7998,VALID,66,VALID,0.323047,
2008-07-17, 07:09:04,VALID,1003.36,VALID,0,VALID,88.5866,VALID,187.952,VALID,26.8603,VALID,60,VALID,0.297656,
2008-07-17, 07:10:04,VALID,1003.37,VALID,0,VALID,88.434,VALID,156.476,VALID,26.9362,VALID,47,VALID,0.360938,
2008-07-17, 07:11:04,VALID,1003.37,VALID,0,VALID,88.2127,VALID,91.9145,VALID,27.0162,VALID,349,VALID,0.223047,
2008-07-17, 07:12:04,VALID,1003.37,VALID,0,VALID,87.8923,VALID,171.058,VALID,27.0531,VALID,358,VALID,0.64375,
2008-07-17, 07:13:04,VALID,1003.36,VALID,0,VALID,87.8542,VALID,198.813,VALID,27.0942,VALID,358,VALID,0.477734,
2008-07-17, 07:14:04,VALID,1003.38,VALID,0,VALID,87.4727,VALID,204.947,VALID,27.1116,VALID,355,VALID,0.871875,
2008-07-17, 07:15:04,VALID,1003.41,VALID,0,VALID,87.2515,VALID,208.366,VALID,27.1136,VALID,352,VALID,0.498047,
2008-07-17, 07:16:04,VALID,1003.43,VALID,0,VALID,87.5719,VALID,211.987,VALID,27.1136,VALID,352,VALID,0.219141,
2008-07-17, 07:17:04,VALID,1003.43,VALID,0,VALID,86.6183,VALID,216.009,VALID,27.1721,VALID,352,VALID,0.351953,
2008-07-17, 07:18:04,VALID,1003.43,VALID,0,VALID,86.748,VALID,219.629,VALID,27.2306,VALID,349,VALID,0,
2008-07-17, 07:19:04,VALID,1003.43,VALID,0,VALID,86.0385,VALID,222.043,VALID,27.3475,VALID,347,VALID,0.425,
2008-07-17, 07:20:04,VALID,1003.43,VALID,0,VALID,85.1383,VALID,226.367,VALID,27.4449,VALID,347,VALID,0.460156,
2008-07-17, 07:21:04,VALID,1003.41,VALID,0,VALID,84.5204,VALID,232.2,VALID,27.4839,VALID,345,VALID,0.398828,
2008-07-17, 07:22:04,VALID,1003.41,VALID,0,VALID,84.9781,VALID,239.34,VALID,27.5403,VALID,346,VALID,0.144531,
2008-07-17, 07:23:04,VALID,1003.44,VALID,0,VALID,84.5585,VALID,245.474,VALID,27.6983,VALID,293,VALID,0.340625,
2008-07-17, 07:24:04,VALID,1003.44,VALID,0,VALID,83.9253,VALID,250.502,VALID,27.8953,VALID,293,VALID,0.0828125,
2008-07-17, 07:25:04,VALID,1003.44,VALID,0,VALID,82.5826,VALID,251.407,VALID,27.9711,VALID,300,VALID,0.250391,
2008-07-17, 07:26:04,VALID,1003.39,VALID,0,VALID,82.0105,VALID,251.508,VALID,28.0101,VALID,2,VALID,0.566406,
2008-07-17, 07:27:04,VALID,1003.4,VALID,0,VALID,81.6595,VALID,254.927,VALID,28.0707,VALID,318,VALID,0.346875,
2008-07-17, 07:28:04,VALID,1003.38,VALID,0,VALID,81.5756,VALID,258.447,VALID,28.1076,VALID,352,VALID,0.465625,
2008-07-17, 07:29:04,VALID,1003.39,VALID,0,VALID,81.2781,VALID,265.587,VALID,28.1271,VALID,12,VALID,0.25,
2008-07-17, 07:30:04,VALID,1003.4,VALID,0,VALID,80.7898,VALID,270.816,VALID,28.166,VALID,9,VALID,0.772266,
2008-07-17, 07:31:04,VALID,1003.44,VALID,0,VALID,81.3086,VALID,271.922,VALID,28.1487,VALID,27,VALID,0.425,
2008-07-17, 07:32:04,VALID,1003.45,VALID,0,VALID,80.8661,VALID,273.933,VALID,28.1271,VALID,360,VALID,0.527344,
2008-07-17, 07:33:04,VALID,1003.46,VALID,0,VALID,80.8432,VALID,275.945,VALID,28.1271,VALID,31,VALID,0.689453,
2008-07-17, 07:34:04,VALID,1003.48,VALID,0,VALID,80.294,VALID,271.017,VALID,27.9516,VALID,32,VALID,0.871875,
2008-07-17, 07:35:04,VALID,1003.5,VALID,0,VALID,80.2635,VALID,107.301,VALID,27.8542,VALID,31,VALID,0.635156,
2008-07-17, 07:36:04,VALID,1003.5,VALID,0,VALID,81.8274,VALID,153.358,VALID,27.7957,VALID,20,VALID,0.487109,
2008-07-17, 07:37:04,VALID,1003.52,VALID,0,VALID,81.5146,VALID,101.77,VALID,27.7762,VALID,3,VALID,0.385547,
2008-07-17, 07:38:04,VALID,1003.57,VALID,0,VALID,80.9501,VALID,97.3449,VALID,27.7372,VALID,3,VALID,0.185156,
2008-07-17, 07:39:04,VALID,1003.6,VALID,0,VALID,81.6595,VALID,93.2218,VALID,27.7199,VALID,3,VALID,0,
2008-07-17, 07:40:04,VALID,1003.61,VALID,0,VALID,82.0562,VALID,102.172,VALID,27.6983,VALID,3,VALID,0.491797,
2008-07-17, 07:41:04,VALID,1003.69,VALID,0,VALID,81.8655,VALID,109.513,VALID,27.5424,VALID,18,VALID,0.608984,
2008-07-17, 07:42:04,VALID,1003.69,VALID,0,VALID,82.1859,VALID,132.944,VALID,27.4449,VALID,23,VALID,0.308984,
2008-07-17, 07:43:04,VALID,1003.72,VALID,0,VALID,82.4835,VALID,113.334,VALID,27.3885,VALID,23,VALID,0.350391,
2008-07-17, 07:44:04,VALID,1003.71,VALID,0,VALID,83.0175,VALID,117.558,VALID,27.3475,VALID,23,VALID,0.0632813,
2008-07-17, 07:45:04,VALID,1003.73,VALID,0,VALID,83.46,VALID,112.731,VALID,27.3085,VALID,23,VALID,0.24375,
2008-07-17, 07:46:04,VALID,1003.69,VALID,0,VALID,85.001,VALID,95.2331,VALID,27.3301,VALID,20,VALID,0.292188,
2008-07-17, 07:47:04,VALID,1003.69,VALID,0,VALID,83.8033,VALID,83.7689,VALID,27.289,VALID,19,VALID,0.495703,
2008-07-17, 07:48:04,VALID,1003.7,VALID,0,VALID,84.8026,VALID,77.9363,VALID,27.2716,VALID,18,VALID,0.442187,
2008-07-17, 07:49:04,VALID,1003.66,VALID,0,VALID,84.3449,VALID,74.4166,VALID,27.2521,VALID,358,VALID,0.582031,
2008-07-17, 07:50:04,VALID,1003.71,VALID,0,VALID,84.3907,VALID,69.7907,VALID,27.1936,VALID,350,VALID,0.453125,
2008-07-17, 07:51:04,VALID,1003.73,VALID,0,VALID,84.9171,VALID,64.9637,VALID,27.1526,VALID,350,VALID,0.409375,
2008-07-17, 07:52:04,VALID,1003.75,VALID,0,VALID,85.3519,VALID,62.349,VALID,27.1526,VALID,350,VALID,0.338281,
2008-07-17, 07:53:04,VALID,1003.78,VALID,0,VALID,85.4282,VALID,61.7456,VALID,27.1331,VALID,350,VALID,0.376172,
2008-07-17, 07:54:04,VALID,1003.8,VALID,0,VALID,85.5045,VALID,61.3434,VALID,27.0747,VALID,351,VALID,0.591797,
2008-07-17, 07:55:04,VALID,1003.81,VALID,0,VALID,85.6266,VALID,60.1366,VALID,27.0552,VALID,345,VALID,0.287891,
2008-07-17, 07:56:04,VALID,1003.81,VALID,0,VALID,85.8707,VALID,57.6226,VALID,27.0552,VALID,345,VALID,0.0664063,
2008-07-17, 07:57:04,VALID,1003.8,VALID,0,VALID,85.7715,VALID,54.4046,VALID,27.0357,VALID,345,VALID,0.0375,
2008-07-17, 07:58:04,VALID,1003.78,VALID,0,VALID,86.1072,VALID,50.6837,VALID,27.0357,VALID,345,VALID,0,
2008-07-17, 07:59:04,VALID,1003.77,VALID,0,VALID,86.0767,VALID,47.164,VALID,27.0357,VALID,345,VALID,0.307031,
2008-07-17, 08:00:04,VALID,1003.74,VALID,0,VALID,86.0995,VALID,44.7505,VALID,27.0357,VALID,345,VALID,0.180078,
2008-07-17, 08:01:04,VALID,1003.77,VALID,0,VALID,85.8707,VALID,43.4432,VALID,27.0162,VALID,306,VALID,0.516406,
2008-07-17, 08:02:04,VALID,1003.75,VALID,0,VALID,85.6266,VALID,43.4432,VALID,26.9793,VALID,305,VALID,0.546875,
2008-07-17, 08:03:04,VALID,1003.77,VALID,0,VALID,85.9775,VALID,44.4488,VALID,26.9383,VALID,305,VALID,0.309766,
2008-07-17, 08:04:04,VALID,1003.79,VALID,0,VALID,86.275,VALID,46.4601,VALID,26.9403,VALID,305,VALID,0.237891,
2008-07-17, 08:05:04,VALID,1003.79,VALID,0,VALID,86.3894,VALID,48.3708,VALID,26.9013,VALID,316,VALID,0.477734,
2008-07-17, 08:06:04,VALID,1003.81,VALID,0,VALID,86.748,VALID,50.0803,VALID,26.8603,VALID,346,VALID,0.258594,
2008-07-17, 08:07:04,VALID,1003.78,VALID,0,VALID,86.8395,VALID,51.7899,VALID,26.8019,VALID,346,VALID,0.389453,
2008-07-17, 08:08:04,VALID,1003.79,VALID,0,VALID,87.2515,VALID,54.1029,VALID,26.7824,VALID,346,VALID,0.328906,
2008-07-17, 08:09:04,VALID,1003.76,VALID,0,VALID,87.6329,VALID,56.7175,VALID,26.7844,VALID,346,VALID,0.388281,
2008-07-17, 08:10:04,VALID,1003.75,VALID,0,VALID,87.9305,VALID,58.6282,VALID,26.7629,VALID,346,VALID,0.394531,
2008-07-17, 08:11:04,VALID,1003.73,VALID,0,VALID,88.1822,VALID,58.9299,VALID,26.7434,VALID,346,VALID,0.0292969,
2008-07-17, 08:12:04,VALID,1003.77,VALID,0,VALID,88.3806,VALID,57.7231,VALID,26.7045,VALID,346,VALID,0.110937,
2008-07-17, 08:13:04,VALID,1003.79,VALID,0,VALID,88.5255,VALID,54.8068,VALID,26.7045,VALID,346,VALID,0.104297,
2008-07-17, 08:14:04,VALID,1003.79,VALID,0,VALID,88.4798,VALID,50.9854,VALID,26.6675,VALID,346,VALID,0.028125,
2008-07-17, 08:15:04,VALID,1003.81,VALID,0,VALID,88.7849,VALID,48.4713,VALID,26.646,VALID,346,VALID,0.209766,
2008-07-17, 08:16:04,VALID,1003.83,VALID,0,VALID,89.0519,VALID,48.1697,VALID,26.5876,VALID,347,VALID,0.395703,
2008-07-17, 08:17:04,VALID,1003.8,VALID,0,VALID,89.0138,VALID,49.6781,VALID,26.5486,VALID,347,VALID,0.255859,
2008-07-17, 08:18:04,VALID,1003.78,VALID,0,VALID,88.8078,VALID,53.2984,VALID,26.4901,VALID,347,VALID,0.325781,
2008-07-17, 08:19:04,VALID,1003.78,VALID,0,VALID,89.4334,VALID,56.5164,VALID,26.4707,VALID,347,VALID,0.444141,
2008-07-17, 08:20:04,VALID,1003.78,VALID,0,VALID,89.9521,VALID,58.8293,VALID,26.4512,VALID,347,VALID,0.458594,
2008-07-17, 08:21:04,VALID,1003.83,VALID,0,VALID,90.181,VALID,59.835,VALID,26.4512,VALID,347,VALID,0.482422,
2008-07-17, 08:22:04,VALID,1003.85,VALID,0,VALID,90.1276,VALID,60.2372,VALID,26.4337,VALID,347,VALID,0.271484,
2008-07-17, 08:23:04,VALID,1003.86,VALID,0,VALID,90.4175,VALID,61.7456,VALID,26.4122,VALID,347,VALID,0.262109,
2008-07-17, 08:24:04,VALID,1003.89,VALID,0,VALID,90.3336,VALID,63.5558,VALID,26.3927,VALID,348,VALID,0.378516,
2008-07-17, 08:25:04,VALID,1003.94,VALID,0,VALID,90.4099,VALID,65.3659,VALID,26.3733,VALID,355,VALID,0.319141,
2008-07-17, 08:26:04,VALID,1003.94,VALID,0,VALID,90.1276,VALID,67.176,VALID,26.3558,VALID,355,VALID,0.00585938,
2008-07-17, 08:27:04,VALID,1003.93,VALID,0,VALID,89.9216,VALID,69.7907,VALID,26.3148,VALID,30,VALID,0.485547,
2008-07-17, 08:28:04,VALID,1003.94,VALID,0,VALID,90.2954,VALID,72.707,VALID,26.3148,VALID,30,VALID,0.0164062,
2008-07-17, 08:29:04,VALID,1003.9,VALID,0,VALID,90.2802,VALID,75.4222,VALID,26.3538,VALID,30,VALID,0.0609375,
2008-07-17, 08:30:04,VALID,1003.92,VALID,0,VALID,90.3946,VALID,78.238,VALID,26.3733,VALID,30,VALID,0.244531,
2008-07-17, 08:31:04,VALID,1003.88,VALID,0,VALID,90.6311,VALID,77.1318,VALID,26.4122,VALID,30,VALID,0,
2008-07-17, 08:32:04,VALID,1003.89,VALID,0,VALID,90.4556,VALID,76.0256,VALID,26.3907,VALID,30,VALID,0,
2008-07-17, 08:33:04,VALID,1003.87,VALID,0,VALID,90.3793,VALID,74.316,VALID,26.4122,VALID,30,VALID,0,
2008-07-17, 08:34:04,VALID,1003.88,VALID,0,VALID,89.4334,VALID,73.9138,VALID,26.3733,VALID,30,VALID,0.000390625,
2008-07-17, 08:35:04,VALID,1003.88,VALID,0,VALID,90.6387,VALID,73.3104,VALID,26.4317,VALID,30,VALID,0.441797,
2008-07-17, 08:36:04,VALID,1003.89,VALID,0,VALID,90.8218,VALID,73.2098,VALID,26.4122,VALID,178,VALID,0.448828,
2008-07-17, 08:37:04,VALID,1003.9,VALID,0,VALID,90.1657,VALID,73.8132,VALID,26.3538,VALID,162,VALID,0.658594,
2008-07-17, 08:38:04,VALID,1003.93,VALID,0,VALID,89.5783,VALID,74.2155,VALID,26.3128,VALID,150,VALID,0.713281,
2008-07-17, 08:39:04,VALID,1003.95,VALID,0,VALID,89.0824,VALID,75.02,VALID,26.2953,VALID,98,VALID,0.785156,
2008-07-17, 08:40:04,VALID,1003.96,VALID,0,VALID,88.7697,VALID,76.4278,VALID,26.2349,VALID,100,VALID,0.758984,
2008-07-17, 08:41:04,VALID,1003.96,VALID,0,VALID,89.296,VALID,76.8301,VALID,26.2759,VALID,100,VALID,0.173047,
2008-07-17, 08:42:04,VALID,1003.88,VALID,0,VALID,89.4715,VALID,77.9363,VALID,26.2564,VALID,100,VALID,0,
2008-07-17, 08:43:04,VALID,1003.91,VALID,0,VALID,89.6775,VALID,80.1487,VALID,26.2349,VALID,100,VALID,0,
2008-07-17, 08:44:04,VALID,1003.91,VALID,0,VALID,89.2045,VALID,82.6627,VALID,26.2369,VALID,100,VALID,0,
2008-07-17, 08:45:04,VALID,1003.92,VALID,0,VALID,89.7004,VALID,83.9701,VALID,26.2564,VALID,100,VALID,0,
2008-07-17, 08:46:04,VALID,1003.93,VALID,0,VALID,88.2127,VALID,84.0706,VALID,26.1765,VALID,81,VALID,0.551953,
2008-07-17, 08:47:04,VALID,1003.97,VALID,0,VALID,87.5567,VALID,83.5678,VALID,26.159,VALID,88,VALID,0.630078,
2008-07-17, 08:48:05,VALID,1004,VALID,0,VALID,88.2127,VALID,82.3611,VALID,26.159,VALID,124,VALID,0.867969,
2008-07-17, 08:49:05,VALID,1004.06,VALID,0.5,VALID,86.9387,VALID,80.752,VALID,26.118,VALID,134,VALID,1.04648,
2008-07-17, 08:50:05,VALID,1004.04,VALID,0,VALID,86.1377,VALID,81.1543,VALID,26.081,VALID,118,VALID,1.24805,
2008-07-17, 08:51:05,VALID,1004.06,VALID,0,VALID,87.4041,VALID,83.5678,VALID,26.081,VALID,121,VALID,0.641797,
2008-07-17, 08:52:05,VALID,1004.04,VALID,0,VALID,86.6031,VALID,88.7971,VALID,26.0421,VALID,104,VALID,0.867578,
2008-07-17, 08:53:05,VALID,1004.04,VALID,0,VALID,86.6793,VALID,98.5517,VALID,25.9817,VALID,133,VALID,0.966406,
2008-07-17, 08:54:05,VALID,1004.03,VALID,0,VALID,87.076,VALID,112.429,VALID,25.9038,VALID,113,VALID,0.723047,
2008-07-17, 08:55:05,VALID,1004.02,VALID,0,VALID,87.3736,VALID,129.425,VALID,25.8473,VALID,124,VALID,0.987891,
2008-07-17, 08:56:05,VALID,1004.03,VALID,0,VALID,87.6253,VALID,151.046,VALID,25.7694,VALID,99,VALID,1.0457,
2008-07-17, 08:57:05,VALID,1003.98,VALID,0,VALID,88.5408,VALID,175.482,VALID,25.7285,VALID,92,VALID,0.35625,
2008-07-17, 08:58:05,VALID,1003.94,VALID,0,VALID,89.2503,VALID,200.523,VALID,25.7499,VALID,93,VALID,0.515234,
2008-07-17, 08:59:05,VALID,1003.91,VALID,0,VALID,89.5783,VALID,227.172,VALID,25.7304,VALID,125,VALID,0.616406,
2008-07-17, 09:00:05,VALID,1003.9,VALID,0,VALID,89.853,VALID,249.597,VALID,25.7499,VALID,90,VALID,0.544141,
2008-07-17, 09:01:05,VALID,1003.91,VALID,0,VALID,90.2344,VALID,263.575,VALID,25.8298,VALID,90,VALID,0.110547,
2008-07-17, 09:02:05,VALID,1003.91,VALID,0,VALID,89.7385,VALID,261.564,VALID,25.8083,VALID,112,VALID,0.849219,
2008-07-17, 09:03:05,VALID,1004.01,VALID,0,VALID,87.9,VALID,246.379,VALID,25.748,VALID,116,VALID,1.44141,
2008-07-17, 09:04:05,VALID,1004.06,VALID,0,VALID,89.7538,VALID,230.49,VALID,25.8473,VALID,122,VALID,1.13047,
2008-07-17, 09:05:05,VALID,1004.1,VALID,0,VALID,88.1136,VALID,232.502,VALID,25.8278,VALID,133,VALID,1.23203,
2008-07-17, 09:06:05,VALID,1004.13,VALID,0,VALID,90.0666,VALID,247.586,VALID,25.8863,VALID,148,VALID,1.12695,
2008-07-17, 09:07:05,VALID,1004.14,VALID,0,VALID,89.38,VALID,267.397,VALID,25.8473,VALID,150,VALID,1.08594,
2008-07-17, 09:08:05,VALID,1004.15,VALID,0,VALID,88.434,VALID,281.073,VALID,25.8493,VALID,159,VALID,1.18555,
2008-07-17, 09:09:05,VALID,1004.18,VALID,0,VALID,90.2344,VALID,279.163,VALID,25.9272,VALID,168,VALID,0.690625,
2008-07-17, 09:10:05,VALID,1004.22,VALID,0,VALID,89.708,VALID,267.699,VALID,25.9272,VALID,144,VALID,0.981641,
2008-07-17, 09:11:05,VALID,1004.26,VALID,0,VALID,89.5554,VALID,256.637,VALID,25.9856,VALID,146,VALID,0.879297,
2008-07-17, 09:12:05,VALID,1004.32,VALID,0,VALID,87.7474,VALID,246.781,VALID,25.9467,VALID,166,VALID,1.18906,
2008-07-17, 09:13:05,VALID,1004.34,VALID,0,VALID,87.8847,VALID,240.647,VALID,25.9272,VALID,149,VALID,1.53711,
2008-07-17, 09:14:05,VALID,1004.38,VALID,0,VALID,89.3647,VALID,235.518,VALID,25.9252,VALID,146,VALID,0.8875,
2008-07-17, 09:15:05,VALID,1004.43,VALID,0,VALID,88.7697,VALID,230.792,VALID,25.8863,VALID,122,VALID,1.43125,
2008-07-17, 09:16:05,VALID,1004.43,VALID,0,VALID,88.6857,VALID,233.407,VALID,25.8259,VALID,123,VALID,1.48008,
2008-07-17, 09:17:05,VALID,1004.43,VALID,0,VALID,89.3037,VALID,236.021,VALID,25.8298,VALID,129,VALID,1.38086,
2008-07-17, 09:18:05,VALID,1004.42,VALID,0,VALID,87.961,VALID,234.01,VALID,25.7519,VALID,130,VALID,1.38203,
2008-07-17, 09:19:05,VALID,1004.41,VALID,0.5,VALID,89.2121,VALID,230.289,VALID,25.7519,VALID,133,VALID,1.04258,
2008-07-17, 09:20:05,VALID,1004.37,VALID,0,VALID,88.9985,VALID,227.775,VALID,25.7304,VALID,136,VALID,1.20117,
2008-07-17, 09:21:05,VALID,1004.33,VALID,0,VALID,90.181,VALID,262.67,VALID,25.7694,VALID,127,VALID,0.685156,
2008-07-17, 09:22:05,VALID,1004.28,VALID,0,VALID,89.7767,VALID,280.571,VALID,25.7694,VALID,99,VALID,1.00273,
2008-07-17, 09:23:05,VALID,1004.26,VALID,0,VALID,90.2344,VALID,363.636,VALID,25.8083,VALID,108,VALID,0.973828,
2008-07-17, 09:24:05,VALID,1004.23,VALID,0,VALID,90.1886,VALID,277.453,VALID,25.8473,VALID,61,VALID,1.10195,
2008-07-17, 09:25:05,VALID,1004.23,VALID,0,VALID,89.5554,VALID,264.078,VALID,25.8278,VALID,108,VALID,1.32813,
2008-07-17, 09:26:05,VALID,1004.22,VALID,0,VALID,89.3952,VALID,245.575,VALID,25.7869,VALID,122,VALID,1.84727,
2008-07-17, 09:27:05,VALID,1004.23,VALID,0.5,VALID,90.6921,VALID,245.072,VALID,25.7519,VALID,126,VALID,1.45352,
2008-07-17, 09:28:05,VALID,1004.25,VALID,0.5,VALID,91.6839,VALID,200.824,VALID,25.6525,VALID,137,VALID,1.38672,
2008-07-17, 09:29:05,VALID,1004.22,VALID,0.5,VALID,90.7074,VALID,194.891,VALID,25.4597,VALID,144,VALID,1.85273,
2008-07-17, 09:30:05,VALID,1004.28,VALID,0,VALID,91.928,VALID,186.947,VALID,25.3798,VALID,134,VALID,1.81992,
2008-07-17, 09:31:05,VALID,1004.3,VALID,0,VALID,91.0278,VALID,170.454,VALID,25.224,VALID,144,VALID,2.54258,
2008-07-17, 09:32:05,VALID,1004.34,VALID,0,VALID,92.2561,VALID,157.28,VALID,25.2046,VALID,140,VALID,2.02813,
2008-07-17, 09:33:05,VALID,1004.37,VALID,0,VALID,92.874,VALID,144.911,VALID,25.2454,VALID,126,VALID,2.60898,
2008-07-17, 09:34:05,VALID,1004.38,VALID,0,VALID,93.1105,VALID,136.464,VALID,25.2454,VALID,122,VALID,1.73555,
2008-07-17, 09:35:05,VALID,1004.46,VALID,0.5,VALID,93.4767,VALID,128.519,VALID,25.2046,VALID,131,VALID,2.43984,
2008-07-17, 09:36:05,VALID,1004.5,VALID,0,VALID,93.4004,VALID,127.715,VALID,25.2065,VALID,123,VALID,2.14258,
2008-07-17, 09:37:05,VALID,1004.43,VALID,0.5,VALID,92.7596,VALID,136.062,VALID,25.0682,VALID,98,VALID,2.44492,
2008-07-17, 09:38:05,VALID,1004.33,VALID,0,VALID,92.9274,VALID,150.543,VALID,24.9319,VALID,96,VALID,1.0832,
2008-07-17, 09:39:05,VALID,1004.27,VALID,0.5,VALID,93.347,VALID,167.739,VALID,24.8716,VALID,34,VALID,1.19297,
2008-07-17, 09:40:05,VALID,1004.25,VALID,0,VALID,92.9732,VALID,189.461,VALID,24.8151,VALID,37,VALID,1.04023,
2008-07-17, 09:41:05,VALID,1004.19,VALID,0,VALID,93.0189,VALID,213.495,VALID,24.7761,VALID,20,VALID,1.13633,
2008-07-17, 09:42:05,VALID,1004.18,VALID,0,VALID,93.6674,VALID,243.061,VALID,24.8346,VALID,3,VALID,0.701172,
2008-07-17, 09:43:05,VALID,1004.17,VALID,0,VALID,93.9344,VALID,273.531,VALID,24.893,VALID,348,VALID,0.601563,
2008-07-17, 09:44:05,VALID,1004.18,VALID,0,VALID,93.9649,VALID,330.752,VALID,24.9319,VALID,11,VALID,0.692578,
2008-07-17, 09:45:05,VALID,1004.21,VALID,0,VALID,93.8581,VALID,405.47,VALID,24.9709,VALID,27,VALID,0.752734,
2008-07-17, 09:46:05,VALID,1004.28,VALID,0,VALID,94.1938,VALID,429.605,VALID,25.1072,VALID,47,VALID,0.601953,
2008-07-17, 09:47:05,VALID,1004.32,VALID,0,VALID,94.1175,VALID,389.48,VALID,25.1851,VALID,44,VALID,0.238281,
2008-07-17, 09:48:05,VALID,1004.36,VALID,0,VALID,93.2173,VALID,341.311,VALID,25.1267,VALID,28,VALID,0.716016,
2008-07-17, 09:49:05,VALID,1004.37,VALID,0,VALID,93.4843,VALID,362.027,VALID,25.2046,VALID,106,VALID,0.918359,
2008-07-17, 09:50:05,VALID,1004.4,VALID,0,VALID,94.3082,VALID,416.23,VALID,25.4188,VALID,150,VALID,1.05586,
2008-07-17, 09:51:05,VALID,1004.37,VALID,0,VALID,93.0876,VALID,423.973,VALID,25.4207,VALID,164,VALID,1.08828,
2008-07-17, 09:52:05,VALID,1004.4,VALID,0,VALID,93.6521,VALID,452.332,VALID,25.5357,VALID,181,VALID,1.27813,
2008-07-17, 09:53:05,VALID,1004.39,VALID,0,VALID,93.1639,VALID,468.221,VALID,25.5162,VALID,177,VALID,0.814062,
2008-07-17, 09:54:05,VALID,1004.43,VALID,0,VALID,92.4315,VALID,493.462,VALID,25.5376,VALID,177,VALID,1.17617,
2008-07-17, 09:55:05,VALID,1004.43,VALID,0,VALID,92.9503,VALID,522.223,VALID,25.5746,VALID,159,VALID,0.976953,
2008-07-17, 09:56:05,VALID,1004.43,VALID,0,VALID,92.1111,VALID,560.437,VALID,25.5746,VALID,141,VALID,0.854688,
2008-07-17, 09:57:05,VALID,1004.4,VALID,0,VALID,91.0583,VALID,752.01,VALID,25.5727,VALID,145,VALID,1.64492,
2008-07-17, 09:58:05,VALID,1004.38,VALID,0,VALID,90.8371,VALID,1048.17,VALID,25.6915,VALID,151,VALID,0.983594,
2008-07-17, 09:59:05,VALID,1004.38,VALID,0,VALID,90.5624,VALID,953.739,VALID,25.8668,VALID,154,VALID,1.12734,
2008-07-17, 10:00:05,VALID,1004.29,VALID,0,VALID,91.5084,VALID,606.495,VALID,26.0226,VALID,106,VALID,0.703906,
2008-07-17, 10:01:05,VALID,1004.3,VALID,0,VALID,91.0507,VALID,943.28,VALID,26.2389,VALID,134,VALID,1.28867,
2008-07-17, 10:02:05,VALID,1004.29,VALID,0,VALID,90.4938,VALID,644.206,VALID,26.2778,VALID,131,VALID,1.34687,
2008-07-17, 10:03:05,VALID,1004.3,VALID,0,VALID,88.9451,VALID,1000.2,VALID,26.2953,VALID,160,VALID,1.78047,
2008-07-17, 10:04:05,VALID,1004.25,VALID,0,VALID,91.5847,VALID,941.973,VALID,26.3753,VALID,186,VALID,1.15625,
2008-07-17, 10:05:05,VALID,1004.25,VALID,0,VALID,88.8307,VALID,514.279,VALID,26.3363,VALID,169,VALID,0.738672,
2008-07-17, 10:06:05,VALID,1004.23,VALID,0,VALID,87.4575,VALID,515.988,VALID,26.3538,VALID,168,VALID,1.1707,
2008-07-17, 10:07:05,VALID,1004.23,VALID,0,VALID,89.5325,VALID,974.153,VALID,26.3343,VALID,155,VALID,1.30156,
2008-07-17, 10:08:05,VALID,1004.25,VALID,0,VALID,87.816,VALID,774.938,VALID,26.3927,VALID,197,VALID,2.46797,
2008-07-17, 10:09:05,VALID,1004.31,VALID,0,VALID,89.174,VALID,630.429,VALID,26.3927,VALID,150,VALID,2.04805,
2008-07-17, 10:10:05,VALID,1004.33,VALID,0,VALID,87.3049,VALID,885.256,VALID,26.3927,VALID,158,VALID,2.0707,
2008-07-17, 10:11:05,VALID,1004.32,VALID,0,VALID,88.3729,VALID,1003.72,VALID,26.4337,VALID,160,VALID,1.05234,